TimeEST,TemperatureF,Dew PointF,Humidity,Sea Level PressureIn,VisibilityMPH,Wind Direction,Wind SpeedMPH,Gust SpeedMPH,PrecipitationIn,Events,Conditions,WindDirDegrees,DateUTC
12:53 AM,7.0,-16.1,34,30.03,10.0,Calm,Calm,-,N/A,,Clear,0,2013-01-23 05:53:00
1:53 AM,5.0,-15.0,39,30.04,10.0,Calm,Calm,-,N/A,,Clear,0,2013-01-23 06:53:00
2:53 AM,3.9,-15.0,41,30.04,10.0,WNW,4.6,-,N/A,,Clear,300,2013-01-23 07:53:00
3:53 AM,3.0,-16.1,41,30.04,10.0,Variable,5.8,-,N/A,,Clear,0,2013-01-23 08:53:00
4:53 AM,1.9,-17.0,41,30.06,10.0,WNW,5.8,-,N/A,,Clear,300,2013-01-23 09:53:00
5:53 AM,1.0,-17.0,43,30.06,10.0,Variable,6.9,-,N/A,,Clear,0,2013-01-23 10:53:00
6:53 AM,-0.0,-18.9,41,30.08,10.0,Variable,4.6,-,N/A,,Clear,0,2013-01-23 11:53:00
7:53 AM,1.0,-20.0,37,30.09,10.0,Variable,6.9,-,N/A,,Clear,0,2013-01-23 12:53:00
8:53 AM,1.0,-20.9,35,30.09,10.0,West,8.1,21.9,N/A,,Clear,280,2013-01-23 13:53:00
9:53 AM,1.9,-20.0,35,30.10,10.0,NW,10.4,20.7,N/A,,Clear,310,2013-01-23 14:53:00
10:53 AM,3.0,-20.0,34,30.08,10.0,West,8.1,-,N/A,,Clear,280,2013-01-23 15:53:00
11:53 AM,3.9,-20.0,32,30.05,10.0,Variable,6.9,-,N/A,,Clear,0,2013-01-23 16:53:00
12:53 PM,6.1,-20.0,29,30.04,10.0,West,10.4,19.6,N/A,,Clear,270,2013-01-23 17:53:00
1:53 PM,5.0,-20.9,29,30.04,10.0,WNW,11.5,17.3,N/A,,Clear,290,2013-01-23 18:53:00
2:53 PM,6.1,-20.9,28,30.04,10.0,WNW,9.2,18.4,N/A,,Clear,290,2013-01-23 19:53:00
3:53 PM,5.0,-20.0,31,30.05,10.0,Variable,3.5,-,N/A,,Clear,0,2013-01-23 20:53:00
4:53 PM,3.9,-20.0,32,30.06,10.0,Variable,5.8,-,N/A,,Clear,0,2013-01-23 21:53:00
5:53 PM,3.0,-20.0,34,30.08,10.0,Variable,3.5,-,N/A,,Clear,0,2013-01-23 22:53:00
6:53 PM,1.9,-18.9,37,30.09,10.0,Variable,4.6,-,N/A,,Clear,0,2013-01-23 23:53:00
7:53 PM,1.0,-20.0,37,30.08,10.0,Variable,6.9,-,N/A,,Clear,0,2013-01-24 00:53:00
8:53 PM,1.0,-20.0,37,30.08,10.0,Variable,5.8,-,N/A,,Clear,0,2013-01-24 01:53:00
10:53 PM,-0.0,-20.0,39,30.07,10.0,West,5.8,-,N/A,,Clear,280,2013-01-24 03:53:00
11:53 PM,-0.9,-18.9,42,30.07,10.0,Calm,Calm,-,N/A,,Clear,0,2013-01-24 04:53:00